Location: Newark
(25.4297°S, 49.2719°W)
Time: 18:09:42
(UTC+00:00)

Hubble Space Telescope - Pass Details

Date: 23 June 2021
Orbit: 535 x 539 km, 28.5° (Epoch: 25 July)

Event Time Altitude Azimuth Distance (km) Brightness Sun altitude
Exits shadow 07:24:42 15° 64° (ENE) 1,503 3.7 -34.6°
Drops below altitude 10° 07:25:28 10° 66° (ENE) 1,792 4.2 -34.5°
Sets 07:27:44 0° 68° (ENE) 2,681 5.4 -34.0°
